User: anonymous
Location: Unspecified
(42.1900°N, 71.3291°W)
Time: 09:43:33
(UTC-04:00)
Language:

Resurs 1-4 Rocket - Orbit

View from above orbital plane
View from above orbital plane
View from above satellite
View from above satellite

Ground track
Ground track

The orbit data is extracted from the following two-line orbital elements,

1 25400U 98043G   14104.95346342  .00000063  00000-0  44079-4 0  6300
2 25400 098.3284 085.0970 0011120 095.1750 265.0700 14.25237979819937
Epoch (UTC): 14 April 2014 22:52:59
Eccentricity: 0.0011120
inclination: 98.3284°
perigee height: 800 km
apogee height: 815 km
right ascension of ascending node: 85.0970°
argument of perigee: 95.1750°
revolutions per day: 14.25237979
mean anomaly at epoch: 265.0700°
orbit number at epoch: 81993

The dashed part of the orbit path shows where the satellite is in the earth's shadow,  

DLR